This is the latest recevied weather packets stored in our database for station/object DG9MHV-10. If no packets are shown the sender has not sent any weather packets the latest 10 day(s).
| Time | Temp. | Humidity | Pressure | Rain* | Wind** | Luminosity | Snow |
|---|---|---|---|---|---|---|---|
| 1777557377 | 14.44° C | 37% | 1025 hPa | - | - | - | - |
| 1777556477 | 14.44° C | 37% | 1025.1 hPa | - | - | - | - |
| 1777555577 | 14.44° C | 38% | 1025.1 hPa | - | - | - | - |
| 1777554677 | 14.44° C | 38% | 1025.4 hPa | - | - | - | - |
| 1777553777 | 14.44° C | 39% | 1025.6 hPa | - | - | - | - |
| 1777552877 | 13.89° C | 37% | 1025.5 hPa | - | - | - | - |
| 1777551977 | 13.89° C | 36% | 1025.7 hPa | - | - | - | - |
| 1777551077 | 13.89° C | 39% | 1025.7 hPa | - | - | - | - |
| 1777550176 | 13.33° C | 38% | 1025.6 hPa | - | - | - | - |
| 1777549276 | 13.33° C | 40% | 1025.6 hPa | - | - | - | - |
| 1777548376 | 13.33° C | 40% | 1025.7 hPa | - | - | - | - |
| 1777547476 | 12.78° C | 44% | 1025.9 hPa | - | - | - | - |
| 1777546576 | 12.78° C | 49% | 1026.2 hPa | - | - | - | - |
| 1777545676 | 12.22° C | 54% | 1026.2 hPa | - | - | - | - |
| 1777544776 | 12.22° C | 54% | 1026.5 hPa | - | - | - | - |
| 1777543876 | 12.22° C | 54% | 1026.3 hPa | - | - | - | - |
| 1777542976 | 12.78° C | 58% | 1026.4 hPa | - | - | - | - |
| 1777542076 | 12.78° C | 57% | 1026.5 hPa | - | - | - | - |
| 1777541176 | 12.78° C | 56% | 1026.5 hPa | - | - | - | - |
| 1777540276 | 12.22° C | 58% | 1026.5 hPa | - | - | - | - |
| 1777539375 | 13.33° C | 52% | 1026.7 hPa | - | - | - | - |
| 1777538475 | 13.33° C | 56% | 1026.4 hPa | - | - | - | - |
| 1777537575 | 12.78° C | 56% | 1026.4 hPa | - | - | - | - |
| 1777536675 | 13.33° C | 52% | 1026.5 hPa | - | - | - | - |
| 1777535775 | 12.78° C | 54% | 1026.3 hPa | - | - | - | - |
* Rain since midnight (hover to see other rain measurements)
** Current wind speed in m/s (hover to see current wind gust speed)